HST
1 20580U 90037B   24140.51294472  .00009875  00000-0  47139-3 0  9995
2 20580  28.4673 177.1946 0002790  88.7588 271.3324 15.17377538672671
ISS (ZARYA)
1 25544U 98067A   24141.38489656  .00028504  00000-0  47719-3 0  9991
2 25544  51.6385  93.1612 0003297 187.7096 315.3150 15.51632182454231
CXO
1 25867U 99040B   24141.41825767  .00000654  00000-0  00000-0 0  9997
2 25867  40.5518 156.4184 8917274 294.5910 359.8498  0.37815615 14456